,,Stat5,,Stat1,,Stat2,,Stat3,,Stat4,,Wind1,,Wind1,
time,status,PA1M_AVG,status,PR1M_SUM,status,RH1M_AVG,status,SR1M_AVG,status,TA1M_AVG,status,W1dAve1m,status,W1sAve1m,
2001-08-09, 00:00:01,VALID,919.353,VALID,0,VALID,95.9655,VALID,-0.0509425,VALID,18.528,VALID,82,VALID,0.688702,
2001-08-09, 00:01:01,VALID,919.364,VALID,0,VALID,95.9922,VALID,-0.0509425,VALID,18.5442,VALID,71,VALID,0.788143,
2001-08-09, 00:02:00,VALID,919.38,VALID,0,VALID,96.0341,VALID,-0.0849042,VALID,18.5479,VALID,60,VALID,0.789274,
2001-08-09, 00:03:00,VALID,919.405,VALID,0,VALID,95.7238,VALID,-0.0679233,VALID,18.5481,VALID,50,VALID,0.780048,
2001-08-09, 00:04:01,VALID,919.41,VALID,0,VALID,95.7188,VALID,-0.0849042,VALID,18.5476,VALID,39,VALID,0.474609,
2001-08-09, 00:05:00,VALID,919.423,VALID,0,VALID,95.893,VALID,-0.0509425,VALID,18.5576,VALID,32,VALID,0.361673,
2001-08-09, 00:06:00,VALID,919.418,VALID,0,VALID,95.8993,VALID,-0.0509425,VALID,18.5737,VALID,71,VALID,0.525608,
2001-08-09, 00:07:00,VALID,919.415,VALID,0,VALID,95.4047,VALID,-0.0679233,VALID,18.5576,VALID,89,VALID,0.634816,
2001-08-09, 00:08:01,VALID,919.418,VALID,0,VALID,95.5051,VALID,-0.101885,VALID,18.5315,VALID,77,VALID,0.609976,
2001-08-09, 00:09:00,VALID,919.413,VALID,0,VALID,95.289,VALID,-0.0679233,VALID,18.4994,VALID,99,VALID,0.627604,
2001-08-09, 00:10:00,VALID,919.423,VALID,0,VALID,95.3678,VALID,-0.0339617,VALID,18.48,VALID,106,VALID,0.691623,
2001-08-09, 00:11:01,VALID,919.422,VALID,0,VALID,95.088,VALID,-0.0339617,VALID,18.4641,VALID,109,VALID,0.971628,
2001-08-09, 00:12:00,VALID,919.387,VALID,0,VALID,95.5229,VALID,-0.0679233,VALID,18.4505,VALID,119,VALID,1.03766,
2001-08-09, 00:13:00,VALID,919.387,VALID,0,VALID,95.5484,VALID,-0.0679233,VALID,18.4542,VALID,122,VALID,0.859992,
2001-08-09, 00:14:01,VALID,919.377,VALID,0,VALID,95.6069,VALID,0,VALID,18.4768,VALID,129,VALID,1.12458,
2001-08-09, 00:15:00,VALID,919.348,VALID,0,VALID,95.8281,VALID,0.0339617,VALID,18.463,VALID,129,VALID,0.633235,
2001-08-09, 00:16:00,VALID,919.332,VALID,0,VALID,96.0926,VALID,0.0339617,VALID,18.4722,VALID,122,VALID,0.63192,
2001-08-09, 00:17:00,VALID,919.301,VALID,0,VALID,96.0723,VALID,0.0169808,VALID,18.4722,VALID,115,VALID,0.89822,
2001-08-09, 00:18:00,VALID,919.282,VALID,0,VALID,96.1829,VALID,0.0339617,VALID,18.4526,VALID,120,VALID,0.737981,
2001-08-09, 00:19:00,VALID,919.271,VALID,0.2,VALID,96.3164,VALID,0.0169808,VALID,18.4494,VALID,116,VALID,0.434416,
2001-08-09, 00:20:00,VALID,919.269,VALID,0,VALID,96.3965,VALID,0.0169808,VALID,18.4434,VALID,114,VALID,0.471217,
2001-08-09, 00:21:01,VALID,919.268,VALID,0,VALID,96.4881,VALID,0.0169808,VALID,18.4401,VALID,104,VALID,0.130804,
2001-08-09, 00:22:00,VALID,919.264,VALID,0,VALID,96.5567,VALID,0,VALID,18.4535,VALID,102,VALID,0.0907452,
2001-08-09, 00:23:01,VALID,919.245,VALID,0,VALID,96.7386,VALID,0.0339617,VALID,18.4597,VALID,48,VALID,0.327744,
2001-08-09, 00:24:00,VALID,919.239,VALID,0,VALID,96.9408,VALID,0,VALID,18.4692,VALID,30,VALID,0.51582,
2001-08-09, 00:25:01,VALID,919.229,VALID,0,VALID,97.1252,VALID,0,VALID,18.5077,VALID,27,VALID,0.449219,
2001-08-09, 00:26:00,VALID,919.221,VALID,0,VALID,97.0069,VALID,0.0169808,VALID,18.4819,VALID,23,VALID,0.326172,
2001-08-09, 00:27:00,VALID,919.207,VALID,0,VALID,96.9522,VALID,0.0339617,VALID,18.4531,VALID,15,VALID,0.227009,
2001-08-09, 00:28:00,VALID,919.191,VALID,0,VALID,96.881,VALID,0.0679233,VALID,18.4175,VALID,353,VALID,0.175781,
2001-08-09, 00:29:01,VALID,919.176,VALID,0,VALID,96.867,VALID,-0.0509425,VALID,18.3989,VALID,347,VALID,0.00527872,
2001-08-09, 00:30:00,VALID,919.161,VALID,0,VALID,96.5847,VALID,-0.0509425,VALID,18.3834,VALID,347,VALID,0,
2001-08-09, 00:31:00,VALID,919.15,VALID,0,VALID,96.277,VALID,-0.0679233,VALID,18.3442,VALID,347,VALID,0,
2001-08-09, 00:32:01,VALID,919.137,VALID,0,VALID,96.1536,VALID,-0.101885,VALID,18.3451,VALID,347,VALID,0,
2001-08-09, 00:33:00,VALID,919.11,VALID,0,VALID,96.1002,VALID,-0.0339617,VALID,18.3608,VALID,347,VALID,0,
2001-08-09, 00:34:01,VALID,919.102,VALID,0,VALID,96.174,VALID,-0.0509425,VALID,18.3737,VALID,347,VALID,0,
2001-08-09, 00:35:00,VALID,919.069,VALID,0,VALID,96.3825,VALID,-0.0169808,VALID,18.3924,VALID,27,VALID,0,
2001-08-09, 00:36:00,VALID,919.054,VALID,0,VALID,96.6254,VALID,-0.0509425,VALID,18.4318,VALID,155,VALID,0,
2001-08-09, 00:37:01,VALID,919.047,VALID,0,VALID,96.7157,VALID,-0.0339617,VALID,18.4441,VALID,147,VALID,0,
2001-08-09, 00:38:00,VALID,919.042,VALID,0,VALID,96.778,VALID,-0.0169808,VALID,18.4738,VALID,147,VALID,0,
2001-08-09, 00:39:01,VALID,919.032,VALID,0,VALID,96.5987,VALID,-0.0509425,VALID,18.4475,VALID,147,VALID,0,
2001-08-09, 00:40:00,VALID,919.01,VALID,0,VALID,96.4359,VALID,-0.0509425,VALID,18.4219,VALID,114,VALID,0,
2001-08-09, 00:41:01,VALID,918.992,VALID,0,VALID,96.4181,VALID,-0.0509425,VALID,18.4065,VALID,84,VALID,0.363782,
2001-08-09, 00:42:00,VALID,918.999,VALID,0,VALID,96.4092,VALID,-0.0509425,VALID,18.3735,VALID,68,VALID,1.09135,
2001-08-09, 00:43:01,VALID,918.984,VALID,0,VALID,96.1905,VALID,-0.0169808,VALID,18.3313,VALID,64,VALID,1.19575,
2001-08-09, 00:44:01,VALID,918.968,VALID,0,VALID,96.1384,VALID,-0.0509425,VALID,18.3061,VALID,65,VALID,1.0734,
2001-08-09, 00:45:00,VALID,918.947,VALID,0,VALID,96.118,VALID,-0.0509425,VALID,18.2734,VALID,91,VALID,1.15399,
2001-08-09, 00:46:00,VALID,918.926,VALID,0,VALID,96.1448,VALID,-0.0339617,VALID,18.2219,VALID,110,VALID,1.35238,
2001-08-09, 00:47:01,VALID,918.922,VALID,0,VALID,96.3864,VALID,-0.0169808,VALID,18.1966,VALID,123,VALID,1.20481,
2001-08-09, 00:48:00,VALID,918.905,VALID,0,VALID,96.5962,VALID,-0.0339617,VALID,18.1539,VALID,114,VALID,0.988176,
2001-08-09, 00:49:00,VALID,918.902,VALID,0,VALID,96.8594,VALID,-0.0679233,VALID,18.1477,VALID,125,VALID,0.846652,
2001-08-09, 00:50:00,VALID,918.892,VALID,0,VALID,97.1035,VALID,-0.0679233,VALID,18.1412,VALID,123,VALID,1.09397,
2001-08-09, 00:51:00,VALID,918.875,VALID,0,VALID,97.3528,VALID,-0.0849042,VALID,18.1313,VALID,123,VALID,1.16526,
2001-08-09, 00:52:00,VALID,918.871,VALID,0,VALID,97.5435,VALID,-0.0509425,VALID,18.1417,VALID,128,VALID,1.14145,
2001-08-09, 00:53:00,VALID,918.851,VALID,0,VALID,97.6834,VALID,-0.0169808,VALID,18.1447,VALID,140,VALID,1.09128,
2001-08-09, 00:54:01,VALID,918.849,VALID,0,VALID,97.8233,VALID,-0.101885,VALID,18.1318,VALID,128,VALID,1.09397,
2001-08-09, 00:55:00,VALID,918.828,VALID,0,VALID,97.9326,VALID,-0.0509425,VALID,18.1315,VALID,125,VALID,1.39503,
2001-08-09, 00:56:01,VALID,918.823,VALID,0,VALID,98.0165,VALID,-0.0169808,VALID,18.1384,VALID,128,VALID,1.01524,
2001-08-09, 00:57:01,VALID,918.813,VALID,0,VALID,98.0992,VALID,0,VALID,18.135,VALID,137,VALID,1.13418,
2001-08-09, 00:58:01,VALID,918.806,VALID,0,VALID,98.1539,VALID,-0.0339617,VALID,18.1315,VALID,130,VALID,1.29688,
2001-08-09, 00:59:00,VALID,918.807,VALID,0,VALID,98.1742,VALID,0.0679233,VALID,18.1073,VALID,121,VALID,1.20595,
2001-08-09, 01:00:00,VALID,918.781,VALID,0,VALID,98.1641,VALID,0.0509425,VALID,18.108,VALID,123,VALID,1.30558,
2001-08-09, 01:01:01,VALID,918.785,VALID,0,VALID,98.1806,VALID,0.0679233,VALID,18.0979,VALID,125,VALID,0.950658,
2001-08-09, 01:02:00,VALID,918.778,VALID,0,VALID,98.1653,VALID,0.0509425,VALID,18.1082,VALID,132,VALID,0.998522,
2001-08-09, 01:03:00,VALID,918.779,VALID,0,VALID,98.1628,VALID,0.0849042,VALID,18.108,VALID,135,VALID,1.003,
2001-08-09, 01:04:01,VALID,918.78,VALID,0,VALID,98.1399,VALID,0.0339617,VALID,18.0981,VALID,119,VALID,0.899414,
2001-08-09, 01:05:01,VALID,918.768,VALID,0,VALID,98.0916,VALID,0.0509425,VALID,18.1013,VALID,136,VALID,1.38189,
2001-08-09, 01:06:01,VALID,918.762,VALID,0,VALID,98.0407,VALID,0.0169808,VALID,18.082,VALID,126,VALID,1.4373,
2001-08-09, 01:07:01,VALID,918.739,VALID,0,VALID,97.925,VALID,0.0509425,VALID,18.0723,VALID,135,VALID,1.70052,
2001-08-09, 01:08:01,VALID,918.725,VALID,0,VALID,97.8423,VALID,0.0509425,VALID,18.072,VALID,141,VALID,1.60677,
2001-08-09, 01:09:00,VALID,918.703,VALID,0,VALID,97.7889,VALID,0.0849042,VALID,18.0688,VALID,133,VALID,1.21217,
2001-08-09, 01:10:00,VALID,918.702,VALID,0,VALID,97.6643,VALID,0.0339617,VALID,18.075,VALID,137,VALID,1.23438,
2001-08-09, 01:11:01,VALID,918.708,VALID,0,VALID,97.4812,VALID,0.0679233,VALID,18.0723,VALID,139,VALID,1.41016,
2001-08-09, 01:12:01,VALID,918.698,VALID,0,VALID,97.3604,VALID,0.0509425,VALID,18.079,VALID,137,VALID,1.47196,
2001-08-09, 01:13:01,VALID,918.686,VALID,0,VALID,97.2104,VALID,0.101885,VALID,18.0886,VALID,137,VALID,1.9127,
2001-08-09, 01:14:00,VALID,918.681,VALID,0,VALID,97.0794,VALID,0.0509425,VALID,18.0949,VALID,139,VALID,1.52885,
2001-08-09, 01:15:01,VALID,918.691,VALID,0,VALID,97.0005,VALID,0.0849042,VALID,18.1112,VALID,140,VALID,1.64683,
2001-08-09, 01:16:01,VALID,918.696,VALID,0,VALID,96.9103,VALID,0.0509425,VALID,18.1239,VALID,139,VALID,1.19162,
2001-08-09, 01:17:01,VALID,918.701,VALID,0,VALID,96.8645,VALID,0.101885,VALID,18.1235,VALID,138,VALID,1.2831,
2001-08-09, 01:18:01,VALID,918.696,VALID,0,VALID,96.7564,VALID,0.0169808,VALID,18.1265,VALID,136,VALID,1.38035,
2001-08-09, 01:19:00,VALID,918.699,VALID,0,VALID,96.5847,VALID,0.0679233,VALID,18.1371,VALID,127,VALID,1.1764,
2001-08-09, 01:20:01,VALID,918.707,VALID,0,VALID,96.4677,VALID,0.0679233,VALID,18.1267,VALID,110,VALID,1.09523,
2001-08-09, 01:21:01,VALID,918.706,VALID,0,VALID,96.4652,VALID,0.0509425,VALID,18.1592,VALID,125,VALID,1.0416,
2001-08-09, 01:22:01,VALID,918.706,VALID,0,VALID,96.1053,VALID,0.0679233,VALID,18.1724,VALID,119,VALID,1.32165,
2001-08-09, 01:23:01,VALID,918.693,VALID,0,VALID,95.8243,VALID,0.0509425,VALID,18.1784,VALID,111,VALID,1.12652,
2001-08-09, 01:24:01,VALID,918.679,VALID,0,VALID,95.5509,VALID,0.101885,VALID,18.2076,VALID,122,VALID,1.16887,
2001-08-09, 01:25:01,VALID,918.67,VALID,0,VALID,95.2686,VALID,0.0509425,VALID,18.227,VALID,138,VALID,0.930099,
2001-08-09, 01:26:01,VALID,918.673,VALID,0,VALID,94.8884,VALID,0.0849042,VALID,18.2337,VALID,124,VALID,0.934827,
2001-08-09, 01:27:01,VALID,918.659,VALID,0,VALID,94.6214,VALID,0.0849042,VALID,18.2501,VALID,128,VALID,1.16295,
2001-08-09, 01:28:01,VALID,918.633,VALID,0,VALID,94.156,VALID,0.0679233,VALID,18.2662,VALID,131,VALID,1.44692,
2001-08-09, 01:29:01,VALID,918.601,VALID,0,VALID,94.0898,VALID,0.0339617,VALID,18.2921,VALID,127,VALID,1.12443,
2001-08-09, 01:30:01,VALID,918.574,VALID,0,VALID,94.1013,VALID,0,VALID,18.3147,VALID,118,VALID,1.00957,
2001-08-09, 01:31:01,VALID,918.56,VALID,0,VALID,94.1878,VALID,0.0339617,VALID,18.3209,VALID,127,VALID,0.782986,
2001-08-09, 01:32:01,VALID,918.533,VALID,0,VALID,94.1763,VALID,0.0679233,VALID,18.3144,VALID,133,VALID,0.823785,
2001-08-09, 01:33:01,VALID,918.502,VALID,0,VALID,94.1,VALID,0.0169808,VALID,18.305,VALID,137,VALID,1.05022,
2001-08-09, 01:34:01,VALID,918.504,VALID,0,VALID,94.3378,VALID,0.0339617,VALID,18.2985,VALID,127,VALID,1.04215,
2001-08-09, 01:35:01,VALID,918.5,VALID,0,VALID,94.395,VALID,0,VALID,18.2921,VALID,118,VALID,0.850929,
2001-08-09, 01:36:01,VALID,918.484,VALID,0,VALID,94.0313,VALID,0.0169808,VALID,18.2635,VALID,126,VALID,0.950921,
2001-08-09, 01:37:01,VALID,918.476,VALID,0,VALID,94.2831,VALID,0.0339617,VALID,18.2531,VALID,123,VALID,0.920313,
2001-08-09, 01:38:00,VALID,918.449,VALID,0,VALID,94.3887,VALID,0.0169808,VALID,18.2632,VALID,130,VALID,1.15005,
2001-08-09, 01:39:00,VALID,918.439,VALID,0,VALID,94.3251,VALID,0,VALID,18.2339,VALID,126,VALID,1.31691,
2001-08-09, 01:40:00,VALID,918.424,VALID,0,VALID,94.4993,VALID,0,VALID,18.2277,VALID,119,VALID,0.946715,
2001-08-09, 01:41:00,VALID,918.384,VALID,0,VALID,94.484,VALID,0.0169808,VALID,18.1982,VALID,117,VALID,1.12059,
2001-08-09, 01:42:00,VALID,918.371,VALID,0,VALID,94.5756,VALID,0,VALID,18.2053,VALID,115,VALID,1.33902,
2001-08-09, 01:43:00,VALID,918.35,VALID,0,VALID,94.4739,VALID,0,VALID,18.1694,VALID,125,VALID,0.966427,
2001-08-09, 01:44:00,VALID,918.33,VALID,0,VALID,94.5934,VALID,-0.0849042,VALID,18.1643,VALID,123,VALID,1.05642,
2001-08-09, 01:45:00,VALID,918.31,VALID,0,VALID,93.964,VALID,-0.101885,VALID,18.1382,VALID,121,VALID,1.45994,
2001-08-09, 01:46:00,VALID,918.292,VALID,0,VALID,93.9207,VALID,-0.0849042,VALID,18.1419,VALID,123,VALID,0.569531,
2001-08-09, 01:47:00,VALID,918.27,VALID,0,VALID,93.7757,VALID,-0.0849042,VALID,18.1615,VALID,120,VALID,0.978766,
2001-08-09, 01:48:00,VALID,918.258,VALID,0,VALID,93.524,VALID,-0.0509425,VALID,18.1509,VALID,122,VALID,1.05449,
2001-08-09, 01:49:00,VALID,918.231,VALID,0,VALID,93.5456,VALID,-0.0849042,VALID,18.1675,VALID,134,VALID,0.749132,
2001-08-09, 01:50:00,VALID,918.203,VALID,0.2,VALID,93.3065,VALID,-0.101885,VALID,18.174,VALID,135,VALID,0.712788,
2001-08-09, 01:51:00,VALID,918.164,VALID,0,VALID,93.4985,VALID,-0.101885,VALID,18.174,VALID,135,VALID,0.852796,
2001-08-09, 01:52:00,VALID,918.149,VALID,0,VALID,93.6715,VALID,-0.101885,VALID,18.1973,VALID,146,VALID,0.888775,
2001-08-09, 01:53:00,VALID,918.128,VALID,0,VALID,93.8431,VALID,-0.101885,VALID,18.194,VALID,149,VALID,0.666807,
2001-08-09, 01:54:00,VALID,918.098,VALID,0,VALID,94.1242,VALID,-0.0849042,VALID,18.1878,VALID,137,VALID,0.775549,
2001-08-09, 01:55:00,VALID,918.09,VALID,0,VALID,94.259,VALID,-0.0849042,VALID,18.1613,VALID,140,VALID,0.939955,
2001-08-09, 01:56:00,VALID,918.077,VALID,0,VALID,94.5285,VALID,-0.101885,VALID,18.1516,VALID,137,VALID,1.02235,
2001-08-09, 01:57:00,VALID,918.057,VALID,0,VALID,94.8998,VALID,-0.101885,VALID,18.1417,VALID,124,VALID,0.817107,
2001-08-09, 01:58:00,VALID,918.029,VALID,0,VALID,94.7282,VALID,-0.0679233,VALID,18.1225,VALID,114,VALID,1.2646,
2001-08-09, 01:59:00,VALID,918.025,VALID,0,VALID,94.8655,VALID,0.0169808,VALID,18.1022,VALID,117,VALID,1.14618,
2001-08-09, 02:00:00,VALID,917.999,VALID,0,VALID,94.9698,VALID,0.0169808,VALID,18.0859,VALID,135,VALID,0.800223,
2001-08-09, 02:01:00,VALID,917.997,VALID,0,VALID,95.1961,VALID,0,VALID,18.0822,VALID,131,VALID,0.825721,
2001-08-09, 02:02:00,VALID,917.985,VALID,0,VALID,95.5357,VALID,0,VALID,18.0986,VALID,139,VALID,0.783537,
2001-08-09, 02:03:00,VALID,917.974,VALID,0,VALID,95.7773,VALID,-0.0169808,VALID,18.0988,VALID,123,VALID,0.672266,
2001-08-09, 02:04:00,VALID,917.973,VALID,0,VALID,95.5217,VALID,0.0339617,VALID,18.0727,VALID,109,VALID,1.19206,
2001-08-09, 02:05:00,VALID,917.959,VALID,0,VALID,95.3589,VALID,0,VALID,18.0437,VALID,107,VALID,0.922309,
2001-08-09, 02:06:00,VALID,917.952,VALID,0,VALID,95.2165,VALID,0.0339617,VALID,18.0181,VALID,97,VALID,0.938839,
2001-08-09, 02:07:00,VALID,917.964,VALID,0,VALID,95.0931,VALID,0.0169808,VALID,18.0181,VALID,96,VALID,0.984786,
2001-08-09, 02:08:00,VALID,917.951,VALID,0,VALID,95.0079,VALID,0.0169808,VALID,17.992,VALID,107,VALID,1.08488,
2001-08-09, 02:09:00,VALID,917.933,VALID,0,VALID,94.8045,VALID,0,VALID,17.9858,VALID,107,VALID,1.19952,
2001-08-09, 02:10:00,VALID,917.91,VALID,0,VALID,94.8312,VALID,0.0169808,VALID,17.9726,VALID,88,VALID,0.786719,
2001-08-09, 02:11:00,VALID,917.887,VALID,0,VALID,94.9037,VALID,0.0509425,VALID,17.9828,VALID,82,VALID,0.924862,
2001-08-09, 02:12:00,VALID,917.883,VALID,0,VALID,95.0028,VALID,0.0169808,VALID,17.9593,VALID,79,VALID,0.933093,
2001-08-09, 02:13:00,VALID,917.876,VALID,0,VALID,94.9736,VALID,0.0169808,VALID,17.9595,VALID,77,VALID,0.86238,
2001-08-09, 02:14:00,VALID,917.866,VALID,0,VALID,95.2737,VALID,0,VALID,17.9606,VALID,69,VALID,0.602764,
2001-08-09, 02:15:00,VALID,917.852,VALID,0,VALID,95.4174,VALID,-0.0339617,VALID,17.9507,VALID,71,VALID,0.531867,
2001-08-09, 02:16:00,VALID,917.84,VALID,0,VALID,95.2279,VALID,-0.0339617,VALID,17.9318,VALID,76,VALID,0.753378,
2001-08-09, 02:17:00,VALID,917.833,VALID,0,VALID,94.8808,VALID,-0.0339617,VALID,17.8995,VALID,76,VALID,0.768446,
2001-08-09, 02:18:00,VALID,917.83,VALID,0,VALID,94.8668,VALID,-0.0339617,VALID,17.8764,VALID,81,VALID,0.509415,
2001-08-09, 02:19:00,VALID,917.817,VALID,0,VALID,94.6023,VALID,-0.0169808,VALID,17.8607,VALID,84,VALID,0.526367,
2001-08-09, 02:20:00,VALID,917.817,VALID,0,VALID,94.6341,VALID,0,VALID,17.8476,VALID,85,VALID,0.28766,
2001-08-09, 02:21:00,VALID,917.81,VALID,0,VALID,94.6849,VALID,-0.0509425,VALID,17.8381,VALID,87,VALID,0.294671,
2001-08-09, 02:22:00,VALID,917.81,VALID,0,VALID,94.6417,VALID,-0.0339617,VALID,17.8216,VALID,93,VALID,0.432075,
2001-08-09, 02:23:00,VALID,917.797,VALID,0,VALID,94.3047,VALID,-0.0339617,VALID,17.8125,VALID,99,VALID,1.04441,
2001-08-09, 02:24:00,VALID,917.789,VALID,0,VALID,94.1852,VALID,-0.0169808,VALID,17.7899,VALID,87,VALID,1.12623,
2001-08-09, 02:25:00,VALID,917.781,VALID,0,VALID,94.5133,VALID,-0.0339617,VALID,17.8128,VALID,70,VALID,1.02652,
2001-08-09, 02:26:00,VALID,917.797,VALID,0,VALID,94.5896,VALID,-0.0169808,VALID,17.8093,VALID,58,VALID,0.988387,
2001-08-09, 02:27:00,VALID,917.812,VALID,0,VALID,94.7447,VALID,-0.0169808,VALID,17.8093,VALID,59,VALID,0.601351,
2001-08-09, 02:28:00,VALID,917.837,VALID,0,VALID,94.4942,VALID,-0.0509425,VALID,17.7768,VALID,73,VALID,0.790402,
2001-08-09, 02:29:00,VALID,917.825,VALID,0,VALID,94.3467,VALID,0.0679233,VALID,17.7464,VALID,73,VALID,0.902344,
2001-08-09, 02:30:00,VALID,917.851,VALID,0,VALID,94.498,VALID,0.0339617,VALID,17.7399,VALID,74,VALID,0.575321,
2001-08-09, 02:31:00,VALID,917.85,VALID,0,VALID,94.6493,VALID,0.0509425,VALID,17.7432,VALID,90,VALID,0.884868,
2001-08-09, 02:32:00,VALID,917.849,VALID,0,VALID,94.69,VALID,0.0679233,VALID,17.7273,VALID,101,VALID,0.886719,
2001-08-09, 02:33:00,VALID,917.845,VALID,0,VALID,94.7778,VALID,0.0509425,VALID,17.6851,VALID,108,VALID,1.13013,
2001-08-09, 02:34:00,VALID,917.841,VALID,0,VALID,94.9558,VALID,0.0679233,VALID,17.6887,VALID,112,VALID,0.919872,
2001-08-09, 02:35:00,VALID,917.821,VALID,0,VALID,94.6646,VALID,0.0339617,VALID,17.6694,VALID,100,VALID,1.09566,
2001-08-09, 02:36:00,VALID,917.815,VALID,0,VALID,94.4128,VALID,0.0169808,VALID,17.653,VALID,101,VALID,1.02285,
2001-08-09, 02:37:00,VALID,917.803,VALID,0,VALID,94.4472,VALID,0.0339617,VALID,17.6661,VALID,82,VALID,0.632378,
2001-08-09, 02:38:00,VALID,917.799,VALID,0,VALID,94.6176,VALID,0.101885,VALID,17.6883,VALID,86,VALID,0.642361,
2001-08-09, 02:39:00,VALID,917.79,VALID,0,VALID,94.76,VALID,0.0679233,VALID,17.7016,VALID,73,VALID,0.527009,
2001-08-09, 02:40:00,VALID,917.758,VALID,0,VALID,94.8604,VALID,0.0509425,VALID,17.6784,VALID,73,VALID,0.788651,
2001-08-09, 02:41:00,VALID,917.758,VALID,0,VALID,95.0753,VALID,0.0679233,VALID,17.6821,VALID,80,VALID,0.535262,
2001-08-09, 02:42:00,VALID,917.748,VALID,0,VALID,95.0346,VALID,0.0169808,VALID,17.6859,VALID,100,VALID,0.546274,
2001-08-09, 02:43:00,VALID,917.753,VALID,0,VALID,94.9889,VALID,0.0679233,VALID,17.6629,VALID,92,VALID,0.660156,
2001-08-09, 02:44:00,VALID,917.739,VALID,0,VALID,94.6862,VALID,-0.0339617,VALID,17.6248,VALID,101,VALID,0.997472,
2001-08-09, 02:45:00,VALID,917.731,VALID,0,VALID,94.5769,VALID,-0.0339617,VALID,17.6218,VALID,97,VALID,0.784856,
2001-08-09, 02:46:00,VALID,917.737,VALID,0,VALID,94.6697,VALID,-0.0169808,VALID,17.6391,VALID,89,VALID,0.336739,
2001-08-09, 02:47:00,VALID,917.746,VALID,0,VALID,94.8197,VALID,-0.0339617,VALID,17.6515,VALID,76,VALID,0.448518,
2001-08-09, 02:48:00,VALID,917.758,VALID,0,VALID,94.7752,VALID,-0.0679233,VALID,17.6449,VALID,71,VALID,0.410156,
2001-08-09, 02:49:00,VALID,917.764,VALID,0,VALID,94.8019,VALID,-0.0509425,VALID,17.6513,VALID,29,VALID,0.451858,
2001-08-09, 02:50:00,VALID,917.762,VALID,0,VALID,95.1707,VALID,-0.0339617,VALID,17.6744,VALID,31,VALID,0.393012,
2001-08-09, 02:51:00,VALID,917.765,VALID,0,VALID,95.3042,VALID,-0.0509425,VALID,17.6612,VALID,49,VALID,0.385216,
2001-08-09, 02:52:00,VALID,917.748,VALID,0,VALID,95.3373,VALID,-0.0509425,VALID,17.6451,VALID,77,VALID,0.417773,
2001-08-09, 02:53:00,VALID,917.752,VALID,0,VALID,94.8604,VALID,-0.0169808,VALID,17.5934,VALID,107,VALID,0.792468,
2001-08-09, 02:54:00,VALID,917.739,VALID,0,VALID,95.1682,VALID,-0.0339617,VALID,17.5676,VALID,125,VALID,0.789463,
2001-08-09, 02:55:00,VALID,917.733,VALID,0,VALID,95.5941,VALID,-0.0339617,VALID,17.5939,VALID,132,VALID,0.804253,
2001-08-09, 02:56:00,VALID,917.708,VALID,0,VALID,95.8218,VALID,-0.0169808,VALID,17.5967,VALID,143,VALID,1.34704,
2001-08-09, 02:57:00,VALID,917.68,VALID,0,VALID,95.8993,VALID,-0.0339617,VALID,17.616,VALID,127,VALID,0.93051,
2001-08-09, 02:58:00,VALID,917.647,VALID,0,VALID,95.7696,VALID,-0.0679233,VALID,17.6259,VALID,127,VALID,0.9375,
2001-08-09, 02:59:00,VALID,917.622,VALID,0,VALID,95.9286,VALID,-0.0509425,VALID,17.6389,VALID,135,VALID,0.790541,
2001-08-09, 03:00:00,VALID,917.601,VALID,0,VALID,96.0926,VALID,-0.0849042,VALID,17.6317,VALID,139,VALID,0.929688,
2001-08-09, 03:01:00,VALID,917.583,VALID,0,VALID,96.1448,VALID,-0.0169808,VALID,17.6416,VALID,131,VALID,0.90558,
2001-08-09, 03:02:00,VALID,917.565,VALID,0,VALID,96.221,VALID,-0.0339617,VALID,17.652,VALID,119,VALID,0.657769,
2001-08-09, 03:03:00,VALID,917.55,VALID,0,VALID,96.1231,VALID,-0.0339617,VALID,17.6419,VALID,129,VALID,1.00681,
2001-08-09, 03:04:00,VALID,917.539,VALID,0,VALID,95.9476,VALID,-0.0169808,VALID,17.6223,VALID,118,VALID,1.34971,
2001-08-09, 03:05:00,VALID,917.534,VALID,0,VALID,95.9807,VALID,-0.0509425,VALID,17.6421,VALID,119,VALID,1.25226,
2001-08-09, 03:06:00,VALID,917.531,VALID,0,VALID,96.1269,VALID,-0.101885,VALID,17.6642,VALID,117,VALID,1.5654,
2001-08-09, 03:07:00,VALID,917.538,VALID,0,VALID,96.2249,VALID,-0.0509425,VALID,17.6705,VALID,123,VALID,1.54026,
2001-08-09, 03:08:00,VALID,917.526,VALID,0,VALID,96.1905,VALID,-0.0509425,VALID,17.6804,VALID,123,VALID,1.31269,
2001-08-09, 03:09:00,VALID,917.529,VALID,0,VALID,95.6043,VALID,-0.0509425,VALID,17.6681,VALID,129,VALID,1.49141,
2001-08-09, 03:10:00,VALID,917.517,VALID,0,VALID,95.7099,VALID,-0.0849042,VALID,17.658,VALID,126,VALID,0.692057,
2001-08-09, 03:11:00,VALID,917.511,VALID,0,VALID,95.6717,VALID,-0.0679233,VALID,17.6677,VALID,136,VALID,1.0855,
2001-08-09, 03:12:00,VALID,917.5,VALID,0,VALID,95.7658,VALID,-0.0339617,VALID,17.6808,VALID,138,VALID,1.34665,
2001-08-09, 03:13:00,VALID,917.483,VALID,0,VALID,95.762,VALID,-0.0509425,VALID,17.6776,VALID,134,VALID,1.48006,
2001-08-09, 03:14:00,VALID,917.477,VALID,0,VALID,95.0804,VALID,0,VALID,17.6407,VALID,110,VALID,2.0984,
2001-08-09, 03:15:00,VALID,917.483,VALID,0,VALID,94.8553,VALID,0.0169808,VALID,17.6472,VALID,118,VALID,1.52143,
2001-08-09, 03:16:00,VALID,917.463,VALID,0,VALID,94.5133,VALID,0.0169808,VALID,17.653,VALID,106,VALID,1.39375,
2001-08-09, 03:17:00,VALID,917.476,VALID,0,VALID,94.5158,VALID,0.0339617,VALID,17.6763,VALID,116,VALID,1.30193,
2001-08-09, 03:18:00,VALID,917.477,VALID,0,VALID,94.5324,VALID,0.0169808,VALID,17.6857,VALID,98,VALID,0.697516,
2001-08-09, 03:19:00,VALID,917.473,VALID,0,VALID,94.5985,VALID,0.0339617,VALID,17.6892,VALID,75,VALID,0.607572,
2001-08-09, 03:20:00,VALID,917.471,VALID,0,VALID,94.7066,VALID,0.0679233,VALID,17.6855,VALID,93,VALID,0.472756,
2001-08-09, 03:21:00,VALID,917.474,VALID,0,VALID,94.554,VALID,0.0339617,VALID,17.6689,VALID,105,VALID,1.18688,
2001-08-09, 03:22:00,VALID,917.483,VALID,0,VALID,94.4866,VALID,0.0169808,VALID,17.6823,VALID,114,VALID,1.07813,
2001-08-09, 03:23:00,VALID,917.503,VALID,0,VALID,94.0962,VALID,0,VALID,17.676,VALID,103,VALID,1.30339,
2001-08-09, 03:24:00,VALID,917.497,VALID,0,VALID,93.304,VALID,0.0169808,VALID,17.6892,VALID,100,VALID,1.63962,
2001-08-09, 03:25:00,VALID,917.495,VALID,0,VALID,92.096,VALID,0.0169808,VALID,17.721,VALID,114,VALID,1.50469,
2001-08-09, 03:26:00,VALID,917.485,VALID,0,VALID,91.6967,VALID,0.0509425,VALID,17.8183,VALID,108,VALID,1.67147,
2001-08-09, 03:27:00,VALID,917.485,VALID,0,VALID,90.804,VALID,0.0679233,VALID,17.8864,VALID,106,VALID,1.12039,
2001-08-09, 03:28:00,VALID,917.487,VALID,0,VALID,90.7633,VALID,0.0169808,VALID,17.9378,VALID,110,VALID,1.02539,
2001-08-09, 03:29:00,VALID,917.488,VALID,0,VALID,90.6997,VALID,-0.0849042,VALID,17.9678,VALID,109,VALID,1.43791,
2001-08-09, 03:30:00,VALID,917.5,VALID,0,VALID,90.5001,VALID,-0.101885,VALID,17.9938,VALID,106,VALID,1.60259,
2001-08-09, 03:31:00,VALID,917.508,VALID,0,VALID,90.7417,VALID,-0.101885,VALID,18.0097,VALID,102,VALID,1.55777,